[[{"header":{"parameterUnit":"m.s-1","parameterCategory":2,"la1":30.2991,"la2":30.254,"lo1":-89.0895,"lo2":-89.0444,"dy":0.0017,"dx":0.0017,"nx":28,"ny":28,"refTime":"2024-05-28T21:00:00:Z","depth":"0","parameterNumber":2,"parameterNumberName":"U-component_of_CURRENTS"},"data":[0,0,0,0,0,0,0,0,0,0,0,0,0,0,0,0,0,0,0,0,0,0,0,0,0,0,0,0,0,0,0,0,0,0,0,0,0,0,0,0,0,0,0,0,0,0,0,0,0,0,0,0,0,0,0,0,0,0,0.3726,0.3727,0,0.3844,0.3846,0.3847,0.3879,0.3878,0.3877,0.3876,0.3986,0.3989,0.3993,0,0,0,0,0,0,0,0,0,0,0,0,0,0.3593,0.3595,0.3726,0.3727,0.3728,0.3844,0.3846,0.3848,0.3879,0.3878,0.3877,0.3876,0.3984,0.3989,0.3993,0,0,0,0,0,0,0,0,0,0,0,0,0,0.3677,0.3596,0.3725,0.3756,0.376,0.3844,0.3846,0.3848,0.3879,0.3878,0.3876,0.3875,0.3983,0.3988,0.3994,0.4057,0,0,0.4011,0.4014,0,0,0,0,0,0,0,0,0.3672,0.3682,0.375,0.3754,0.3758,0.3843,0.3839,0.3917,0.388,0.3836,0.3876,0.3874,0.3937,0.3946,0.3975,0.4062,0.4067,0.4012,0.4015,0.4018,0.4019,0,0,0,0,0,0,0,0.3666,0.3678,0.3775,0.3752,0.3757,0.3787,0.3797,0.3855,0.3895,0.384,0.3842,0.3852,0.3939,0.397,0.3978,0.4069,0.4012,0.4017,0.402,0.4023,0.4311,0.4315,0,0,0,0,0,0,0.3645,0.3672,0.3771,0.3778,0.3708,0.379,0.3801,0.3819,0.3894,0.3904,0.3853,0.3853,0.3961,0.3971,0.3982,0.4149,0.4018,0.4023,0.4026,0.4307,0.4312,0.4317,0,0,0,0,0,0,0.3642,0.3654,0.3766,0.3725,0.3741,0.3793,0.3814,0.3822,0.3857,0.3904,0.3913,0.3877,0.396,0.3974,0.407,0.4149,0.4026,0.4031,0.4302,0.4308,0.4314,0.4426,0,0,0,0,0,0,0.3638,0.3652,0.3662,0.3724,0.3743,0.3839,0.3815,0.3826,0.3863,0.3865,0.3928,0.3937,0.396,0.4061,0.4075,0.4155,0.4035,0.4296,0.4305,0.4312,0.4417,0.4435,0.4451,0,0,0,0,0,0.3633,0.365,0.3662,0.3674,0.3754,0.3841,0.3856,0.3887,0.3866,0.3907,0.3954,0.3935,0.4122,0.407,0.4085,0.4168,0.4292,0.4302,0.4312,0.4409,0.4431,0.445,0,0,0,0,0,0,0.358,0.3657,0.3671,0.3705,0.3778,0.3846,0.3874,0.3894,0.3962,0.3958,0.3987,0.4003,0.4122,0.4131,0.4072,0.4277,0.4206,0.4219,0.4274,0.4296,0.4313,0.4235,0.404,0,0,0,0,0,0.3578,0.362,0.3697,0.3725,0.376,0.3818,0.3853,0.3885,0.3948,0.3974,0.4025,0.4087,0.4176,0.4219,0.4291,0.4396,0.4389,0.4462,0.4479,0.4494,0.4445,0.4526,0.4545,0.4348,0.4348,0.4348,0,0,0.3561,0.3609,0.363,0.372,0.3769,0.3861,0.3837,0.3903,0.3985,0.3978,0.4096,0.4149,0.4219,0.435,0.4403,0.4364,0.4561,0.4506,0.4517,0.4459,0.4538,0.4557,0.4573,0.4354,0.4353,0.4352,0,0,0.3574,0.3598,0.3656,0.3735,0.3826,0.3879,0.39,0.3993,0.4036,0.4158,0.4184,0.4265,0.4401,0.4465,0.4514,0.4662,0.465,0.4711,0.4735,0.4818,0.4833,0.4846,0.4909,0.4927,0.4718,0.4718,0.4718,0,0.3548,0.3642,0.3685,0.3782,0.385,0.3892,0.399,0.4058,0.4173,0.4222,0.4209,0.4403,0.4451,0.4601,0.465,0.4697,0.4732,0.4651,0.4836,0.4848,0.4859,0.492,0.4938,0.4725,0.4724,0.4723,0.4723,0,0.3639,0.3719,0.3759,0.3902,0.3982,0.4069,0.4172,0.4245,0.4289,0.436,0.4496,0.4559,0.4658,0.4716,0.4723,0.4853,0.4851,0.4849,0.477,0.4885,0.4944,0.496,0.4734,0.4732,0.473,0.4728,0,0,0.357,0.3781,0.3798,0.3887,0.4056,0.4125,0.4261,0.4398,0.446,0.4569,0.466,0.4799,0.4791,0.4839,0.4873,0.4921,0.5049,0.4909,0.491,0.4944,0.5232,0.5176,0.5188,0.5091,0.5093,0.5095,0.5257,0,0.3631,0.3819,0.3916,0.409,0.4197,0.4291,0.4404,0.4526,0.461,0.4709,0.4774,0.4877,0.4861,0.4895,0.4954,0.5021,0.5089,0.5003,0.5133,0.5135,0.505,0.5203,0.4932,0.5047,0.5272,0.5275,0.5276,0,0.3705,0.3823,0.4008,0.4188,0.4235,0.4338,0.4492,0.4603,0.4748,0.4804,0.49,0.4947,0.5052,0.4998,0.5158,0.5112,0.5164,0.5198,0.5207,0.5101,0.5108,0.4962,0.5067,0.4966,0.5301,0.5299,0.5297,0,0.3663,0.3881,0.4022,0.4101,0.4313,0.4383,0.4476,0.4629,0.4701,0.4854,0.4903,0.5043,0.5098,0.519,0.5269,0.5231,0.542,0.5395,0.5399,0.5396,0.5153,0.5124,0.5132,0.5496,0.5495,0.5495,0.5494,0,0.371,0.3816,0.4006,0.4092,0.4203,0.4361,0.4463,0.4569,0.4704,0.4803,0.4927,0.5007,0.5141,0.5267,0.5324,0.5423,0.5494,0.5405,0.5439,0.5193,0.5167,0.5052,0.5007,0.5501,0.55,0.5498,0.5497,0,0.3676,0.3808,0.396,0.4157,0.4198,0.4279,0.4422,0.4493,0.4632,0.4758,0.4806,0.5006,0.5173,0.5307,0.5474,0.5489,0.5437,0.5608,0.5301,0.5293,0.5145,0.5116,0.4935,0.48,0.5619,0.5619,0.5618,0,0.3684,0.3772,0.3959,0.4005,0.4094,0.4205,0.4269,0.443,0.452,0.4756,0.482,0.5019,0.5152,0.5385,0.5433,0.5552,0.5424,0.5384,0.524,0.5105,0.51,0.4907,0.4792,0.4991,0.4986,0.4981,0.4978,0,0.3683,0.375,0.3865,0.3952,0.4027,0.4099,0.4219,0.4263,0.4476,0.4581,0.4765,0.4887,0.5111,0.5115,0.5275,0.5306,0.5097,0.5296,0.5233,0.4662,0.4371,0.4267,0.4927,0.4938,0.4942,0.4945,0.4947,0.4949,0.3645,0.3704,0.3824,0.3883,0.3948,0.3982,0.398,0.4126,0.4218,0.4347,0.4584,0.4663,0.4796,0.495,0.497,0.4828,0.4844,0.4697,0.4696,0.4533,0.4297,0.487,0.4875,0.4879,0.4882,0.4884,0.4887,0,0.3572,0.3648,0.373,0.3788,0.3775,0.3851,0.3926,0.3896,0.3939,0.4124,0.4234,0.4287,0.4295,0.4387,0.4376,0.4265,0.4033,0.4176,0.3822,0.3761,0.434,0.4207,0.3972,0.3973,0.3973,0.3973,0.3973,0.3973,0.3539,0.3577,0.3623,0.3576,0.3595,0.3522,0.3512,0.351,0.3588,0.3597,0.3619,0.3728,0.3954,0.4033,0.3933,0.3834,0.3586,0.339,0.3478,0.3884,0.393,0.3975,0.384,0.3533,0.3532,0.2664,0.2658,0.2653]},{"header":{"parameterUnit":"m.s-1","parameterCategory":2,"la1":30.2991,"la2":30.254,"lo1":-89.0895,"lo2":-89.0444,"dy":0.0017,"dx":0.0017,"nx":28,"ny":28,"refTime":"2024-05-28T21:00:00:Z","depth":"0","parameterNumber":3,"parameterNumberName":"V-component_of_CURRENTS"},"data":[0,0,0,0,0,0,0,0,0,0,0,0,0,0,0,0,0,0,0,0,0,0,0,0,0,0,0,0,0,0,0,0,0,0,0,0,0,0,0,0,0,0,0,0,0,0,0,0,0,0,0,0,0,0,0,0,0,0,-0.0074,-0.0075,0,-0.0197,-0.0198,-0.02,-0.0246,-0.0246,-0.0245,-0.0244,-0.0467,-0.0473,-0.048,0,0,0,0,0,0,0,0,0,0,0,0,0,0.0016,0.0015,-0.0074,-0.0075,-0.0076,-0.0196,-0.0198,-0.02,-0.0246,-0.0246,-0.0245,-0.0244,-0.0465,-0.0472,-0.048,0,0,0,0,0,0,0,0,0,0,0,0,0,-0.0059,0.0015,-0.0073,-0.0112,-0.0116,-0.0196,-0.0198,-0.0201,-0.0247,-0.0246,-0.0245,-0.0244,-0.0462,-0.0472,-0.0481,-0.056,0,0,-0.0511,-0.0515,0,0,0,0,0,0,0,0,-0.0054,-0.0062,-0.0105,-0.0109,-0.0114,-0.0203,-0.0248,-0.0325,-0.0247,-0.02,-0.0244,-0.0243,-0.0387,-0.0403,-0.043,-0.0571,-0.058,-0.0512,-0.0518,-0.0522,-0.0525,0,0,0,0,0,0,0,-0.0049,-0.0058,-0.0125,-0.0106,-0.0112,-0.0159,-0.0168,-0.0263,-0.0301,-0.0204,-0.0207,-0.0217,-0.039,-0.0421,-0.0436,-0.0583,-0.0512,-0.052,-0.0526,-0.053,-0.0809,-0.081,0,0,0,0,0,0,-0.0024,-0.0053,-0.0121,-0.0128,-0.0078,-0.016,-0.0171,-0.0178,-0.0298,-0.0314,-0.0217,-0.0218,-0.0404,-0.0425,-0.0444,-0.0533,-0.0522,-0.0531,-0.0537,-0.0807,-0.0809,-0.0811,0,0,0,0,0,0,-0.0022,-0.0029,-0.0116,-0.0091,-0.0105,-0.0162,-0.017,-0.018,-0.0208,-0.0306,-0.0325,-0.0233,-0.0405,-0.043,-0.0541,-0.0542,-0.0536,-0.0544,-0.0805,-0.0808,-0.081,-0.0718,0,0,0,0,0,0,-0.0019,-0.0027,-0.0028,-0.0089,-0.0106,-0.0164,-0.0171,-0.0183,-0.0214,-0.0217,-0.0327,-0.0346,-0.0406,-0.0526,-0.055,-0.0555,-0.0552,-0.0803,-0.0806,-0.0809,-0.0719,-0.0717,-0.0715,0,0,0,0,0,-0.0015,-0.0017,-0.0028,-0.0036,-0.0103,-0.0164,-0.0178,-0.0217,-0.0215,-0.0236,-0.0314,-0.0342,-0.0561,-0.0536,-0.0564,-0.0571,-0.0802,-0.0806,-0.0809,-0.072,-0.0717,-0.0715,0,0,0,0,0,0,0.002,-0.0024,-0.0036,-0.0051,-0.0103,-0.0171,-0.0189,-0.0215,-0.0292,-0.0294,-0.0379,-0.0406,-0.0498,-0.0561,-0.0531,-0.0663,-0.0681,-0.069,-0.0603,-0.0602,-0.06,-0.0514,-0.056,0,0,0,0,0,0.0028,0.0017,-0.0039,-0.0053,-0.0072,-0.013,-0.0158,-0.0188,-0.0258,-0.0288,-0.0369,-0.0457,-0.0538,-0.0587,-0.0677,-0.0762,-0.0757,-0.0783,-0.0781,-0.0778,-0.0731,-0.0735,-0.0727,-0.0822,-0.0822,-0.0822,0,0,0.0038,0.0013,0.0006,-0.0047,-0.0084,-0.0124,-0.0145,-0.0186,-0.0219,-0.0306,-0.0384,-0.0462,-0.0562,-0.0648,-0.0693,-0.0698,-0.0755,-0.0783,-0.0779,-0.0732,-0.0738,-0.0727,-0.0718,-0.0825,-0.0824,-0.0824,0,0,0.0051,0.003,0.0026,-0.0022,-0.0075,-0.0117,-0.0125,-0.0201,-0.0227,-0.0321,-0.0377,-0.0438,-0.0599,-0.0638,-0.0683,-0.0727,-0.0746,-0.0778,-0.0695,-0.0702,-0.0692,-0.0683,-0.0669,-0.066,-0.0773,-0.0773,-0.0773,0,0.0067,0.0055,0.001,-0.0019,-0.004,-0.0108,-0.0123,-0.0181,-0.0287,-0.0288,-0.0338,-0.0485,-0.0576,-0.0621,-0.0637,-0.0713,-0.0719,-0.069,-0.0691,-0.0682,-0.0674,-0.0662,-0.0653,-0.0769,-0.0769,-0.077,-0.077,0,0.0068,0.0051,0.0042,-0.0008,-0.0045,-0.0073,-0.0144,-0.0184,-0.0225,-0.0265,-0.032,-0.0434,-0.0498,-0.0552,-0.0614,-0.0609,-0.0631,-0.0684,-0.0675,-0.0657,-0.0649,-0.064,-0.0763,-0.0764,-0.0766,-0.0767,0,0,0.0133,0.0065,0.0062,0.0066,-0.0031,-0.0044,-0.0101,-0.013,-0.011,-0.0225,-0.0196,-0.0336,-0.0358,-0.0408,-0.0487,-0.0494,-0.0463,-0.0558,-0.056,-0.0504,-0.0458,-0.0427,-0.0415,-0.0519,-0.0518,-0.0516,-0.0474,0,0.0158,0.0147,0.0092,0.0082,0.008,0.0009,-0.0016,-0.0057,-0.0101,-0.0109,-0.0178,-0.0209,-0.032,-0.0331,-0.0361,-0.0439,-0.0437,-0.0468,-0.0518,-0.0518,-0.0459,-0.0402,-0.0374,-0.0329,-0.0465,-0.0464,-0.0463,0,0.0185,0.0182,0.0192,0.0186,0.0185,0.0168,0.018,0.0142,0.0103,0.0077,0.0039,-0.0034,-0.0069,-0.0164,-0.0243,-0.0263,-0.0337,-0.0393,-0.0395,-0.0376,-0.0469,-0.0374,-0.0308,-0.0519,-0.045,-0.0451,-0.0452,0,0.0292,0.0262,0.0299,0.028,0.0242,0.0271,0.0263,0.0227,0.0245,0.0217,0.0241,0.0151,0.0144,0.0026,-0.0118,-0.0179,-0.018,-0.029,-0.032,-0.0319,-0.0303,-0.0303,-0.0402,-0.0306,-0.0306,-0.0306,-0.0306,0,0.0349,0.0378,0.0369,0.0383,0.0466,0.0401,0.0484,0.0454,0.0449,0.0514,0.0368,0.0418,0.0196,0.014,-0.0027,-0.0119,-0.0114,-0.0255,-0.0289,-0.0275,-0.0273,-0.0465,-0.0586,-0.0305,-0.0305,-0.0305,-0.0305,0,0.0446,0.0425,0.0476,0.0489,0.0514,0.0578,0.0625,0.068,0.0655,0.0736,0.0741,0.0649,0.0591,0.038,0.0224,0.0043,-0.0171,-0.0114,-0.0067,-0.0096,-0.0348,-0.0464,-0.0531,-0.0613,-0.0144,-0.0143,-0.0142,0,0.0492,0.0529,0.0581,0.0633,0.065,0.0735,0.0799,0.0792,0.0851,0.0901,0.0966,0.0932,0.0944,0.0723,0.0418,0.0173,-0.0058,0.0011,-0.0103,-0.0304,-0.0462,-0.0556,-0.063,-0.0059,-0.0058,-0.0056,-0.0055,0,0.0591,0.0612,0.0654,0.0764,0.0852,0.0946,0.1041,0.112,0.114,0.1236,0.1361,0.1388,0.1182,0.0956,0.0595,0.0393,-0.0122,0.0033,-0.0195,-0.0386,-0.0472,-0.0588,-0.0147,-0.0043,-0.0044,-0.0045,-0.0046,-0.0046,0.0676,0.0734,0.0798,0.0907,0.1003,0.1139,0.1244,0.1367,0.1524,0.1686,0.1696,0.1808,0.1408,0.0937,0.0617,0.003,-0.0001,-0.0189,-0.0305,-0.0375,-0.0472,0.0025,0.0092,0.0092,0.0091,0.0091,0.0091,0,0.0789,0.0844,0.0938,0.1062,0.1182,0.1212,0.139,0.1513,0.1747,0.1947,0.21,0.2015,0.1528,0.0967,0.0185,-0.0254,-0.0447,-0.0506,-0.0673,-0.073,-0.03,-0.0317,-0.031,-0.031,-0.031,-0.0309,-0.0309,-0.0309,0.0852,0.0965,0.1006,0.1203,0.1288,0.1463,0.1573,0.1781,0.1958,0.2247,0.2368,0.2422,0.1997,0.0568,-0.0433,-0.067,-0.0994,-0.1032,-0.1211,-0.0984,-0.0966,-0.0948,-0.0996,-0.113,-0.1131,-0.1598,-0.1603,-0.1606]}],[{"header":{"parameterUnit":"m.s-1","parameterCategory":2,"la1":30.2991,"la2":30.254,"lo1":-89.0895,"lo2":-89.0444,"dy":0.0017,"dx":0.0017,"nx":28,"ny":28,"refTime":"2024-05-28T21:00:00:Z","depth":"2","parameterNumber":2,"parameterNumberName":"U-component_of_CURRENTS"},"data":[0,0,0,0,0,0,0,0,0,0,0,0,0,0,0,0,0,0,0,0,0,0,0,0,0,0,0,0,0,0,0,0,0,0,0,0,0,0,0,0,0,0,0,0,0,0,0,0,0,0,0,0,0,0,0,0,0,0,0.2838,0.2838,0,0.2888,0.2889,0.2889,0.2923,0.2924,0.2924,0.2924,0.2841,0.2839,0.2836,0,0,0,0,0,0,0,0,0,0,0,0,0,0.2786,0.2787,0.2838,0.2838,0.2839,0.2888,0.2889,0.2889,0.2923,0.2924,0.2924,0.2924,0.2842,0.2839,0.2836,0,0,0,0,0,0,0,0,0,0,0,0,0,0.2819,0.2787,0.2838,0.2863,0.2866,0.2888,0.2889,0.2889,0.2923,0.2924,0.2924,0.2925,0.2843,0.2839,0.2836,0.2802,0,0,0.2824,0.2822,0,0,0,0,0,0,0,0,0.2817,0.282,0.2858,0.2861,0.2864,0.2901,0.284,0.2854,0.2923,0.29,0.2924,0.2925,0.2849,0.2845,0.2854,0.2798,0.2794,0.2824,0.2821,0.282,0.2819,0,0,0,0,0,0,0,0.2814,0.2818,0.2857,0.2859,0.2863,0.2877,0.2882,0.2843,0.2868,0.2902,0.2905,0.2912,0.285,0.2857,0.2851,0.2793,0.2824,0.282,0.2818,0.2817,0.2945,0.2951,0,0,0,0,0,0,0.2809,0.2816,0.2855,0.2858,0.2843,0.2877,0.2883,0.2888,0.2871,0.2871,0.2912,0.2914,0.2864,0.2856,0.2848,0.2987,0.282,0.2816,0.2814,0.294,0.2947,0.2953,0,0,0,0,0,0,0.2808,0.2812,0.2853,0.2839,0.2846,0.2878,0.2883,0.2888,0.2922,0.288,0.2877,0.2943,0.2864,0.2854,0.2864,0.2976,0.2815,0.2811,0.2933,0.2942,0.295,0.3147,0,0,0,0,0,0,0.2806,0.2811,0.283,0.2839,0.2846,0.2859,0.2883,0.2889,0.2925,0.2928,0.2905,0.2897,0.2863,0.2871,0.2861,0.2968,0.2808,0.2926,0.2937,0.2947,0.3133,0.3161,0.3185,0,0,0,0,0,0.2804,0.2825,0.2831,0.2837,0.2866,0.2859,0.2863,0.2888,0.2926,0.2925,0.2951,0.2899,0.2934,0.287,0.2857,0.2967,0.292,0.2934,0.2946,0.3121,0.3155,0.3184,0,0,0,0,0,0,0.2814,0.2831,0.2837,0.2863,0.2857,0.2865,0.2893,0.2905,0.2928,0.2964,0.2924,0.2917,0.2974,0.2944,0.2875,0.3046,0.2937,0.2948,0.3076,0.3107,0.3132,0.3147,0.2805,0,0,0,0,0,0.2823,0.2839,0.2843,0.2858,0.2873,0.289,0.2904,0.292,0.2936,0.295,0.2921,0.2955,0.3015,0.3035,0.303,0.3094,0.3071,0.3177,0.3203,0.3225,0.3237,0.3313,0.3345,0.2995,0.2995,0.2994,0,0,0.2826,0.2841,0.2849,0.2861,0.288,0.2907,0.29,0.2936,0.2986,0.2933,0.2984,0.3002,0.3044,0.3134,0.3164,0.3126,0.3316,0.3241,0.3259,0.3259,0.3329,0.3363,0.3393,0.3003,0.3002,0.3,0,0,0.2845,0.2864,0.2893,0.2893,0.2926,0.2943,0.2958,0.297,0.3012,0.3054,0.3084,0.3174,0.3182,0.3276,0.3331,0.3496,0.3427,0.3514,0.3677,0.3753,0.3781,0.3805,0.3821,0.3845,0.3556,0.3557,0.3557,0,0.2853,0.2887,0.2893,0.2921,0.296,0.2965,0.3021,0.3053,0.3061,0.3141,0.309,0.3271,0.3273,0.3502,0.3581,0.3555,0.3556,0.355,0.3783,0.3807,0.3829,0.3838,0.3863,0.3568,0.3566,0.3565,0.3564,0,0.2881,0.2921,0.2942,0.299,0.3031,0.3064,0.3122,0.318,0.3238,0.3277,0.3452,0.3484,0.3612,0.3663,0.3672,0.3891,0.3825,0.3779,0.3693,0.3876,0.3875,0.3896,0.3583,0.3579,0.3576,0.3573,0,0,0.2863,0.2948,0.2955,0.3018,0.3082,0.3123,0.3258,0.3389,0.349,0.3552,0.3694,0.388,0.3906,0.3973,0.4019,0.4109,0.4263,0.403,0.4029,0.4025,0.4396,0.4209,0.4212,0.4256,0.4261,0.4265,0.4331,0,0.2887,0.2967,0.302,0.3127,0.3191,0.3288,0.3388,0.3522,0.3608,0.3703,0.3883,0.3977,0.4027,0.4091,0.4221,0.4217,0.433,0.4246,0.4236,0.4235,0.4031,0.4236,0.3929,0.395,0.4351,0.4355,0.4357,0,0.2905,0.2965,0.3071,0.324,0.3283,0.3338,0.3564,0.3666,0.3845,0.3911,0.4108,0.4143,0.4368,0.4302,0.4517,0.4458,0.447,0.4461,0.4463,0.423,0.409,0.3836,0.3973,0.4392,0.4389,0.4386,0.4384,0,0.2898,0.3025,0.3127,0.3161,0.3319,0.3433,0.3551,0.3733,0.3833,0.4028,0.4071,0.4323,0.4405,0.4519,0.4558,0.4542,0.4677,0.4639,0.4506,0.4489,0.4194,0.4143,0.4789,0.4789,0.4789,0.4789,0.4789,0,0.289,0.2982,0.3116,0.3151,0.3295,0.3438,0.3581,0.3741,0.3887,0.3988,0.4167,0.4252,0.4455,0.4547,0.4591,0.4614,0.4736,0.4567,0.4522,0.4253,0.4209,0.4552,0.4524,0.4791,0.4791,0.479,0.479,0,0.2842,0.2926,0.3063,0.323,0.3279,0.3397,0.3559,0.3643,0.3806,0.3933,0.3995,0.4219,0.4359,0.4495,0.4623,0.4617,0.4648,0.4618,0.4259,0.4171,0.4402,0.4384,0.4507,0.4502,0.4497,0.4493,0.449,0,0.2833,0.288,0.3068,0.3129,0.3189,0.3329,0.3398,0.3589,0.3657,0.3896,0.394,0.4123,0.4209,0.4334,0.4369,0.4421,0.4544,0.4122,0.4059,0.4444,0.4388,0.4377,0.4365,0.3752,0.3743,0.3736,0.373,0,0.2812,0.2876,0.297,0.3053,0.3139,0.3224,0.3337,0.3355,0.3578,0.3646,0.3763,0.3842,0.4006,0.3929,0.3993,0.3986,0.4092,0.3969,0.4507,0.3851,0.3732,0.3676,0.369,0.3664,0.3671,0.3675,0.3679,0.3682,0.2806,0.2863,0.2947,0.3016,0.3091,0.3105,0.3093,0.318,0.3239,0.3314,0.3486,0.3495,0.3595,0.3537,0.3458,0.3435,0.3729,0.359,0.3613,0.3645,0.3527,0.3404,0.325,0.3254,0.3258,0.3261,0.3263,0,0.2758,0.282,0.2892,0.2969,0.2933,0.3014,0.3029,0.2945,0.2912,0.3036,0.3067,0.2863,0.2828,0.2945,0.2821,0.2828,0.2824,0.2712,0.2696,0.2765,0.2825,0.2665,0.2159,0.2155,0.2152,0.2148,0,0,0.2763,0.2774,0.2797,0.2746,0.2783,0.2685,0.2642,0.2561,0.256,0.2469,0.2463,0.2654,0.2827,0.2427,0.2408,0.2257,0.2479,0.2169,0.3066,0.3114,0.3168,0.3355,0.3188,0,0,0,0,0]},{"header":{"parameterUnit":"m.s-1","parameterCategory":2,"la1":30.2991,"la2":30.254,"lo1":-89.0895,"lo2":-89.0444,"dy":0.0017,"dx":0.0017,"nx":28,"ny":28,"refTime":"2024-05-28T21:00:00:Z","depth":"2","parameterNumber":3,"parameterNumberName":"V-component_of_CURRENTS"},"data":[0,0,0,0,0,0,0,0,0,0,0,0,0,0,0,0,0,0,0,0,0,0,0,0,0,0,0,0,0,0,0,0,0,0,0,0,0,0,0,0,0,0,0,0,0,0,0,0,0,0,0,0,0,0,0,0,0,0,-0.0028,-0.0029,0,-0.0123,-0.0124,-0.0126,-0.0174,-0.0174,-0.0174,-0.0174,-0.0267,-0.0269,-0.0272,0,0,0,0,0,0,0,0,0,0,0,0,0,0.0027,0.0027,-0.0028,-0.0029,-0.003,-0.0123,-0.0124,-0.0126,-0.0174,-0.0174,-0.0174,-0.0174,-0.0266,-0.0269,-0.0272,0,0,0,0,0,0,0,0,0,0,0,0,0,-0.0027,0.0027,-0.0028,-0.0064,-0.0068,-0.0123,-0.0124,-0.0126,-0.0174,-0.0174,-0.0174,-0.0174,-0.0265,-0.0268,-0.0272,-0.03,0,0,-0.0284,-0.0286,0,0,0,0,0,0,0,0,-0.0023,-0.0029,-0.0058,-0.0062,-0.0066,-0.0135,-0.0139,-0.0184,-0.0174,-0.0136,-0.0174,-0.0174,-0.0221,-0.0229,-0.025,-0.0304,-0.0308,-0.0284,-0.0287,-0.0288,-0.0289,0,0,0,0,0,0,0,-0.002,-0.0026,-0.0068,-0.0059,-0.0064,-0.0104,-0.0111,-0.0148,-0.018,-0.0139,-0.0143,-0.015,-0.0224,-0.0246,-0.0252,-0.0309,-0.0284,-0.0288,-0.029,-0.0292,-0.0421,-0.0422,0,0,0,0,0,0,0.0,-0.0022,-0.0065,-0.007,-0.0042,-0.0105,-0.0113,-0.0115,-0.018,-0.0189,-0.015,-0.0152,-0.0239,-0.0248,-0.0255,-0.0295,-0.0288,-0.0292,-0.0294,-0.042,-0.0421,-0.0423,0,0,0,0,0,0,0.0002,-0.0003,-0.0061,-0.0047,-0.0057,-0.0105,-0.0108,-0.0117,-0.0137,-0.0188,-0.0197,-0.016,-0.0239,-0.025,-0.0291,-0.0299,-0.0294,-0.0297,-0.0419,-0.0421,-0.0422,-0.0373,0,0,0,0,0,0,0.0004,-0.0001,-0.0,-0.0045,-0.0057,-0.0074,-0.0108,-0.0119,-0.0141,-0.0144,-0.0199,-0.0208,-0.024,-0.0285,-0.0295,-0.0304,-0.03,-0.0417,-0.042,-0.0422,-0.0373,-0.0373,-0.0372,0,0,0,0,0,0.0006,0.0012,0.0001,-0.0005,-0.0052,-0.0073,-0.0083,-0.0119,-0.0141,-0.0139,-0.0191,-0.0206,-0.0306,-0.0289,-0.0301,-0.0311,-0.0416,-0.0419,-0.0421,-0.0373,-0.0373,-0.0372,0,0,0,0,0,0,0.0034,0.0006,-0.0007,-0.0011,-0.0031,-0.008,-0.0088,-0.0116,-0.0157,-0.017,-0.0217,-0.0229,-0.0261,-0.0301,-0.0282,-0.0358,-0.0366,-0.0371,-0.0325,-0.0325,-0.0325,-0.0267,-0.0303,0,0,0,0,0,0.0043,0.0041,0.001,0.0008,0.0001,-0.0045,-0.0061,-0.0089,-0.013,-0.0148,-0.0175,-0.023,-0.0283,-0.0314,-0.0347,-0.0395,-0.0393,-0.0413,-0.0413,-0.0412,-0.0375,-0.0377,-0.0371,-0.0431,-0.0431,-0.0431,0,0,0.0051,0.0037,0.0034,0.0014,-0.0009,0.0005,-0.0054,-0.0077,-0.0069,-0.0153,-0.0147,-0.0213,-0.0291,-0.0334,-0.0355,-0.037,-0.0402,-0.0415,-0.0414,-0.0376,-0.0379,-0.0372,-0.0366,-0.0433,-0.0432,-0.0432,0,0,0.0075,0.0058,0.0069,0.0067,0.004,0.0024,0.0024,-0.0013,-0.0034,-0.0057,-0.0119,-0.0189,-0.0246,-0.031,-0.0355,-0.0377,-0.0384,-0.0401,-0.0368,-0.0371,-0.0365,-0.0359,-0.0369,-0.0365,-0.042,-0.042,-0.042,0,0.0087,0.0105,0.0069,0.0091,0.0097,0.0047,0.007,0.0048,0.0006,-0.0011,-0.004,-0.0153,-0.023,-0.0303,-0.0329,-0.0371,-0.0369,-0.0361,-0.0365,-0.036,-0.0354,-0.0366,-0.0361,-0.0418,-0.0418,-0.0418,-0.0418,0,0.0131,0.015,0.016,0.0183,0.0182,0.0192,0.0169,0.0168,0.0133,0.01,0.0039,-0.0076,-0.0143,-0.0206,-0.0282,-0.0311,-0.032,-0.0345,-0.0353,-0.0344,-0.0359,-0.0355,-0.0415,-0.0415,-0.0416,-0.0416,0,0,0.0155,0.0185,0.0193,0.0231,0.0231,0.0246,0.0259,0.0254,0.0273,0.0199,0.0207,0.0047,-0.0022,-0.0079,-0.0194,-0.0236,-0.0244,-0.028,-0.0281,-0.0264,-0.0241,-0.0271,-0.027,-0.026,-0.0258,-0.0257,-0.0273,0,0.0206,0.0277,0.0266,0.035,0.0393,0.0366,0.0397,0.0379,0.0345,0.0354,0.0206,0.0166,0.0027,-0.0028,-0.0088,-0.0193,-0.0226,-0.0236,-0.0273,-0.0273,-0.0279,-0.0264,-0.023,-0.0241,-0.0269,-0.0268,-0.0268,0,0.0263,0.0309,0.0387,0.0456,0.0469,0.0516,0.0558,0.0565,0.0536,0.05,0.0423,0.0333,0.0221,0.0125,-0.002,-0.0014,-0.0111,-0.0193,-0.0196,-0.0224,-0.0294,-0.0254,-0.0233,-0.0261,-0.0262,-0.0262,-0.0263,0,0.0325,0.0401,0.0471,0.0498,0.056,0.0594,0.0622,0.0613,0.0632,0.0598,0.061,0.0476,0.0416,0.0291,0.0079,0.0046,-0.0039,-0.0106,-0.0217,-0.0221,-0.0197,-0.0201,-0.0157,-0.0157,-0.0157,-0.0157,-0.0157,0,0.04,0.0464,0.0522,0.0574,0.0676,0.0675,0.0765,0.0763,0.0777,0.0827,0.0689,0.07,0.0462,0.0362,0.0175,-0.0003,0.0035,-0.0181,-0.0215,-0.0186,-0.0188,-0.0207,-0.0213,-0.0157,-0.0157,-0.0157,-0.0157,0,0.0466,0.0492,0.059,0.0673,0.0711,0.0782,0.0878,0.0941,0.0929,0.0998,0.0993,0.0884,0.0746,0.0511,0.0305,0.0123,-0.0049,-0.0117,-0.0077,-0.0105,-0.0253,-0.0256,-0.0231,-0.0232,-0.0232,-0.0233,-0.0234,0,0.0506,0.0564,0.0674,0.0739,0.0788,0.0898,0.0979,0.1012,0.1084,0.1116,0.1167,0.1053,0.0987,0.0665,0.034,0.0045,-0.0017,-0.0122,-0.0195,-0.0219,-0.0254,-0.0257,-0.0259,-0.0157,-0.0157,-0.0157,-0.0157,0,0.0595,0.0624,0.0708,0.084,0.0944,0.1062,0.1185,0.1273,0.132,0.1383,0.1436,0.1385,0.1071,0.0762,0.0344,0.0143,-0.008,-0.0131,-0.013,-0.0151,-0.0153,-0.0187,-0.0191,-0.0156,-0.0156,-0.0156,-0.0156,-0.0156,0.0658,0.0729,0.083,0.0962,0.1068,0.1208,0.1318,0.1451,0.158,0.1654,0.1618,0.1536,0.1193,0.0641,0.0301,-0.0066,-0.0063,-0.0208,-0.0206,-0.0205,-0.0201,-0.0205,-0.0217,-0.0217,-0.0218,-0.0218,-0.0218,0,0.0747,0.0828,0.0949,0.109,0.1205,0.1251,0.1442,0.1535,0.1701,0.1755,0.1769,0.1435,0.1095,0.0704,0.0164,-0.016,-0.0187,-0.0262,-0.0227,-0.0224,-0.0223,-0.022,-0.0241,-0.0243,-0.0244,-0.0245,0,0,0.0796,0.0929,0.0995,0.119,0.1278,0.143,0.1537,0.1665,0.1743,0.1787,0.174,0.1624,0.1185,0.0786,0.0361,0.0056,-0.0014,-0.0003,0.0053,0.0148,0.0153,-0.0152,-0.0139,0,0,0,0,0]}],[{"header":{"parameterUnit":"m.s-1","parameterCategory":2,"la1":30.2991,"la2":30.254,"lo1":-89.0895,"lo2":-89.0444,"dy":0.0017,"dx":0.0017,"nx":28,"ny":28,"refTime":"2024-05-28T21:00:00:Z","depth":"4","parameterNumber":2,"parameterNumberName":"U-component_of_CURRENTS"},"data":[0,0,0,0,0,0,0,0,0,0,0,0,0,0,0,0,0,0,0,0,0,0,0,0,0,0,0,0,0,0,0,0,0,0,0,0,0,0,0,0,0,0,0,0,0,0,0,0,0,0,0,0,0,0,0,0,0,0,0.1596,0.1597,0,0.161,0.161,0.1609,0.1638,0.164,0.1641,0.1642,0.1616,0.1614,0.1612,0,0,0,0,0,0,0,0,0,0,0,0,0,0.1607,0.1606,0.1596,0.1597,0.1598,0.161,0.161,0.1609,0.1638,0.164,0.1641,0.1643,0.1616,0.1614,0.1612,0,0,0,0,0,0,0,0,0,0,0,0,0,0.1602,0.1605,0.1596,0.1619,0.1622,0.1611,0.161,0.1609,0.1638,0.164,0.1642,0.1644,0.1617,0.1614,0.1611,0.1555,0,0,0.1603,0.1601,0,0,0,0,0,0,0,0,0.1602,0.1601,0.1615,0.1618,0.1621,0.1631,0.1604,0.1592,0.1637,0.1624,0.1642,0.1644,0.1621,0.1618,0.1606,0.1554,0.1553,0.1602,0.1601,0.1599,0.1599,0,0,0,0,0,0,0,0.1603,0.16,0.1594,0.1616,0.162,0.1634,0.1635,0.1602,0.1604,0.1625,0.1629,0.1642,0.1621,0.1608,0.1605,0.1552,0.1603,0.16,0.1598,0.1597,0.158,0.1581,0,0,0,0,0,0,0.1613,0.16,0.1594,0.1595,0.1625,0.1633,0.1633,0.162,0.1606,0.1608,0.1641,0.1644,0.1612,0.1609,0.1604,0.1636,0.1599,0.1597,0.1595,0.1579,0.158,0.1582,0,0,0,0,0,0,0.1613,0.1611,0.1593,0.1606,0.1606,0.1632,0.1616,0.1619,0.1648,0.162,0.162,0.1672,0.1614,0.1608,0.1608,0.1632,0.1596,0.1593,0.1577,0.1579,0.1581,0.1636,0,0,0,0,0,0,0.1612,0.161,0.1623,0.1606,0.1606,0.1585,0.1615,0.1618,0.1654,0.1659,0.1645,0.1643,0.1615,0.1613,0.1606,0.1627,0.1591,0.1576,0.1578,0.158,0.1632,0.1639,0.1645,0,0,0,0,0,0.1612,0.1614,0.1622,0.1624,0.1615,0.1585,0.1584,0.1606,0.1654,0.1644,0.1662,0.1645,0.1624,0.1611,0.1602,0.1624,0.1575,0.1578,0.158,0.163,0.1638,0.1645,0,0,0,0,0,0,0.1634,0.1617,0.1626,0.1627,0.161,0.1593,0.161,0.1627,0.1633,0.1662,0.1646,0.1642,0.1657,0.1632,0.1619,0.1629,0.1602,0.1603,0.1643,0.165,0.1656,0.1689,0.1588,0,0,0,0,0,0.1642,0.1633,0.1617,0.1617,0.1619,0.1624,0.1631,0.1638,0.1638,0.1646,0.1646,0.1654,0.1652,0.1647,0.1634,0.1623,0.1659,0.1638,0.1645,0.165,0.1673,0.1679,0.1688,0.1591,0.1591,0.1591,0,0,0.1654,0.1646,0.1644,0.1622,0.1624,0.1609,0.1631,0.1641,0.1643,0.1639,0.1663,0.1674,0.1658,0.1658,0.1663,0.1644,0.172,0.1654,0.1658,0.1679,0.1683,0.1692,0.17,0.1593,0.1593,0.1592,0,0,0.1646,0.1663,0.1645,0.1632,0.1635,0.163,0.1643,0.1642,0.1662,0.1666,0.169,0.1721,0.1697,0.1702,0.1698,0.173,0.1757,0.1735,0.1783,0.1788,0.1796,0.1803,0.1963,0.1984,0.1731,0.1731,0.1731,0,0.1676,0.1633,0.1636,0.1616,0.1618,0.1645,0.1628,0.1639,0.1644,0.1694,0.1681,0.1745,0.1717,0.176,0.177,0.1745,0.1805,0.1751,0.1796,0.1803,0.181,0.1971,0.1992,0.1734,0.1734,0.1733,0.1733,0,0.1627,0.1618,0.1613,0.1591,0.1591,0.1582,0.1596,0.1631,0.1677,0.1717,0.1793,0.1772,0.183,0.1813,0.1792,0.1845,0.1902,0.1808,0.1776,0.1823,0.1991,0.2013,0.1738,0.1737,0.1736,0.1736,0,0,0.1633,0.1587,0.1591,0.159,0.158,0.1582,0.1609,0.1657,0.1756,0.1767,0.1876,0.1864,0.1936,0.1937,0.1933,0.1919,0.2028,0.1889,0.1888,0.2053,0.2172,0.1987,0.1995,0.193,0.1932,0.1933,0.231,0,0.16,0.1557,0.1538,0.1532,0.1522,0.1563,0.161,0.1682,0.1752,0.1872,0.1914,0.2012,0.1959,0.202,0.2001,0.2026,0.2073,0.1944,0.2099,0.2108,0.1934,0.2005,0.1938,0.2327,0.2332,0.2335,0.2338,0,0.1549,0.1534,0.1507,0.1543,0.1554,0.1578,0.1708,0.1755,0.1927,0.1999,0.2112,0.2175,0.2262,0.2151,0.2259,0.2187,0.2204,0.2194,0.2206,0.2018,0.1956,0.2244,0.2378,0.2374,0.2371,0.2369,0.2366,0,0.1541,0.152,0.1509,0.1508,0.1554,0.1608,0.1677,0.1833,0.1912,0.2125,0.2215,0.2347,0.242,0.2434,0.2429,0.2376,0.2511,0.2435,0.232,0.2317,0.2351,0.2337,0.2489,0.2489,0.2488,0.2487,0.2486,0,0.1487,0.1493,0.153,0.1526,0.1608,0.1658,0.1792,0.1898,0.2059,0.2173,0.2315,0.2385,0.2466,0.2538,0.2531,0.2513,0.2617,0.2375,0.2367,0.2383,0.2368,0.2375,0.2356,0.2501,0.2498,0.2495,0.2493,0,0.1442,0.1458,0.1462,0.1536,0.1593,0.1667,0.1817,0.1913,0.2095,0.2229,0.2301,0.2471,0.2589,0.2664,0.2728,0.263,0.2632,0.2585,0.2738,0.2728,0.2463,0.2444,0.2595,0.2591,0.2587,0.2584,0.2582,0,0.1387,0.1388,0.147,0.1515,0.1549,0.1675,0.1767,0.1929,0.1995,0.223,0.2264,0.2466,0.2554,0.2598,0.2644,0.2736,0.2625,0.269,0.2449,0.248,0.246,0.2445,0.2431,0.2576,0.2575,0.2574,0.2573,0,0.1292,0.1345,0.135,0.1448,0.1532,0.1614,0.1738,0.1767,0.1947,0.2112,0.2203,0.229,0.2423,0.2507,0.2579,0.2585,0.268,0.2653,0.2659,0.2433,0.2459,0.2439,0.2429,0.2561,0.2563,0.2564,0.2565,0,0.1238,0.1218,0.1263,0.1345,0.1458,0.1518,0.1589,0.1663,0.1756,0.1981,0.2003,0.2212,0.2387,0.243,0.2473,0.2498,0.2454,0.2355,0.2376,0.239,0.212,0.211,0.2129,0,0,0,0,0,0.1167,0.114,0.1174,0.1229,0.134,0.1421,0.1555,0.1617,0.1769,0.1784,0.1889,0.2002,0.2117,0.2223,0.2211,0.2378,0.2454,0.2351,0.2347,0.2493,0.2507,0.2192,0,0,0,0,0,0,0.1123,0.1123,0.1111,0.1141,0.118,0.1274,0.1357,0.1453,0.1467,0.1646,0.1728,0.188,0.2028,0.2116,0.2175,0.2206,0.2161,0.248,0.2475,0.2485,0.2498,0.2509,0.2191,0,0,0,0,0]},{"header":{"parameterUnit":"m.s-1","parameterCategory":2,"la1":30.2991,"la2":30.254,"lo1":-89.0895,"lo2":-89.0444,"dy":0.0017,"dx":0.0017,"nx":28,"ny":28,"refTime":"2024-05-28T21:00:00:Z","depth":"4","parameterNumber":3,"parameterNumberName":"V-component_of_CURRENTS"},"data":[0,0,0,0,0,0,0,0,0,0,0,0,0,0,0,0,0,0,0,0,0,0,0,0,0,0,0,0,0,0,0,0,0,0,0,0,0,0,0,0,0,0,0,0,0,0,0,0,0,0,0,0,0,0,0,0,0,0,0.0086,0.0085,0,0.0068,0.0068,0.0068,0.0039,0.0039,0.0038,0.0037,0.0028,0.0029,0.0029,0,0,0,0,0,0,0,0,0,0,0,0,0,0.0091,0.0092,0.0086,0.0085,0.0085,0.0068,0.0068,0.0068,0.0039,0.0038,0.0038,0.0037,0.0028,0.0029,0.0029,0,0,0,0,0,0,0,0,0,0,0,0,0,0.0085,0.0092,0.0086,0.0067,0.0065,0.0068,0.0068,0.0068,0.004,0.0038,0.0037,0.0036,0.0028,0.0029,0.0029,0.0054,0,0,0.0031,0.0032,0,0,0,0,0,0,0,0,0.0085,0.0085,0.007,0.0069,0.0066,0.0053,0.0066,0.0063,0.004,0.0051,0.0037,0.0036,0.0037,0.0037,0.0038,0.0054,0.0053,0.0031,0.0032,0.0032,0.0032,0,0,0,0,0,0,0,0.0086,0.0085,0.0081,0.007,0.0067,0.0058,0.0056,0.0066,0.0052,0.005,0.0048,0.0043,0.0036,0.0038,0.0038,0.0053,0.0031,0.0032,0.0032,0.0032,0.0106,0.0107,0,0,0,0,0,0,0.0085,0.0086,0.0081,0.008,0.0071,0.0059,0.0057,0.006,0.0052,0.0049,0.0044,0.0042,0.0037,0.0037,0.0038,0.0086,0.0032,0.0033,0.0033,0.0104,0.0106,0.0108,0,0,0,0,0,0,0.0086,0.0086,0.0082,0.008,0.0079,0.006,0.0063,0.006,0.0062,0.0046,0.0044,0.0048,0.0037,0.0037,0.0053,0.0084,0.0033,0.0033,0.0102,0.0105,0.0107,0.017,0,0,0,0,0,0,0.0086,0.0086,0.0093,0.0081,0.0079,0.0096,0.0064,0.006,0.0059,0.0056,0.005,0.0047,0.0036,0.0052,0.0053,0.0084,0.0034,0.01,0.0103,0.0106,0.0166,0.0174,0.0182,0,0,0,0,0,0.0087,0.0102,0.0094,0.0093,0.0088,0.0097,0.0097,0.008,0.0061,0.0075,0.0065,0.0048,0.0072,0.0054,0.0055,0.0087,0.0099,0.0102,0.0106,0.0163,0.0173,0.0181,0,0,0,0,0,0,0.0106,0.01,0.0091,0.0102,0.0104,0.0092,0.0102,0.0087,0.009,0.0085,0.0065,0.0064,0.009,0.0083,0.0063,0.0118,0.0084,0.0088,0.0127,0.0136,0.0144,0.0148,0.0034,0,0,0,0,0,0.0115,0.0125,0.0117,0.0127,0.0133,0.0118,0.0119,0.0109,0.0105,0.0105,0.0103,0.0102,0.0108,0.0115,0.0121,0.0152,0.0107,0.0175,0.0183,0.0189,0.0195,0.0137,0.0139,0.0119,0.0119,0.0119,0,0,0.0122,0.0121,0.0125,0.0132,0.0133,0.0157,0.0118,0.0127,0.015,0.0105,0.0144,0.0129,0.0121,0.0153,0.0165,0.015,0.0174,0.0194,0.0199,0.0201,0.0141,0.0142,0.0143,0.0122,0.0121,0.0121,0,0,0.0152,0.0147,0.0172,0.0184,0.0189,0.0185,0.019,0.0191,0.0196,0.0226,0.0196,0.0196,0.0222,0.0215,0.0214,0.027,0.0213,0.0279,0.0326,0.027,0.027,0.027,0.0219,0.0214,0.0287,0.0287,0.0287,0,0.0161,0.0195,0.0181,0.0216,0.0236,0.0203,0.0245,0.0248,0.0254,0.0266,0.0251,0.0263,0.0252,0.0271,0.029,0.0287,0.0242,0.0289,0.0277,0.0276,0.0275,0.0222,0.0216,0.029,0.029,0.0289,0.0289,0,0.0213,0.0248,0.0268,0.0302,0.0322,0.0351,0.0356,0.0371,0.0369,0.0367,0.0388,0.0364,0.0365,0.0367,0.0348,0.0346,0.0314,0.0287,0.0248,0.028,0.0224,0.0215,0.0295,0.0294,0.0293,0.0292,0,0,0.022,0.0291,0.0301,0.0341,0.0375,0.0395,0.0439,0.0468,0.0482,0.0486,0.0505,0.051,0.0474,0.047,0.0436,0.0394,0.0346,0.0344,0.0339,0.0284,0.0219,0.0192,0.018,0.0307,0.0306,0.0305,0.0184,0,0.0271,0.0357,0.0381,0.0465,0.0514,0.0516,0.0563,0.0578,0.0575,0.058,0.0547,0.055,0.052,0.0508,0.0465,0.0372,0.0327,0.0381,0.0205,0.02,0.0163,0.0171,0.0302,0.0177,0.0175,0.0174,0.0173,0,0.0322,0.0376,0.0475,0.056,0.0581,0.0623,0.0671,0.0707,0.07,0.0696,0.0676,0.063,0.0588,0.0541,0.0408,0.044,0.0343,0.0265,0.0257,0.0204,0.0158,0.0138,0.0157,0.0158,0.0159,0.016,0.0161,0,0.0342,0.0443,0.0526,0.0557,0.0641,0.0686,0.0725,0.0745,0.0779,0.0754,0.075,0.0685,0.0648,0.0525,0.0379,0.0384,0.0205,0.0187,0.0073,0.007,0.0099,0.0101,0.0082,0.0082,0.0082,0.0083,0.0083,0,0.0392,0.0458,0.0543,0.0589,0.0684,0.0729,0.0809,0.0823,0.0843,0.0874,0.0809,0.079,0.0638,0.052,0.0383,0.0204,0.0205,0.008,0.0036,0.0132,0.0138,0.0093,0.0096,0.0078,0.0079,0.008,0.0081,0,0.0413,0.0468,0.0566,0.0665,0.0703,0.077,0.0877,0.0916,0.0928,0.0953,0.0949,0.0861,0.0709,0.0539,0.0323,0.0214,0.0039,-0.0028,0.0089,0.0053,-0.0059,-0.0051,-0.0161,-0.0163,-0.0165,-0.0166,-0.0167,0,0.0433,0.0488,0.0612,0.0673,0.0728,0.0832,0.0902,0.0956,0.0995,0.0994,0.0998,0.0871,0.0787,0.0475,0.029,0.0016,-0.0021,-0.0111,-0.008,-0.0053,-0.0085,-0.0074,-0.0064,-0.017,-0.017,-0.0171,-0.0171,0,0.0473,0.0516,0.0597,0.0713,0.0802,0.0904,0.1001,0.1031,0.1081,0.1086,0.1029,0.0876,0.0699,0.047,0.0251,0.0059,-0.0051,-0.0129,-0.0126,-0.0098,-0.0065,-0.0093,-0.0081,-0.0177,-0.0176,-0.0176,-0.0175,0,0.0497,0.0556,0.0652,0.0762,0.0866,0.0949,0.0999,0.1048,0.109,0.1083,0.1058,0.0878,0.0782,0.0489,0.0289,0.0093,0.005,-0.0006,-0.001,-0.0006,0.0075,0.0141,0.0053,0,0,0,0,0,0.0518,0.0592,0.0691,0.0802,0.0896,0.0952,0.1057,0.1092,0.1128,0.1094,0.1082,0.0918,0.0628,0.0507,0.0306,0.0244,0.0004,0.0,-0.0064,-0.0209,-0.0202,-0.0136,0,0,0,0,0,0,0.0536,0.063,0.0693,0.0815,0.088,0.0978,0.1042,0.1061,0.1051,0.1058,0.091,0.0855,0.0575,0.0734,0.0294,0.0236,0.0166,-0.0127,-0.0131,-0.0213,-0.0207,-0.0201,-0.0131,0,0,0,0,0]}]]